User: anonymous   Login
Location: Unspecified
(42.1900°N, 71.3291°W)
Time: 13:19:56
(UTC-04:00)
Language:

Resurs 1-4 Rocket - Orbit

View from above orbital plane
View from above orbital plane
View from above satellite
View from above satellite

Ground track
Ground track

The orbit data is extracted from the following two-line orbital elements,

1 25400U 98043G   15085.91072464  .00000130  00000-0  72706-4 0  9997
2 25400 098.3752 054.4234 0010322 152.1203 208.0533 14.25313173869218
Epoch (UTC): 26 March 2015 21:51:26
Eccentricity: 0.0010322
inclination: 98.3752°
perigee height: 800 km
apogee height: 815 km
right ascension of ascending node: 54.4234°
argument of perigee: 152.1203°
revolutions per day: 14.25313173
mean anomaly at epoch: 208.0533°
orbit number at epoch: 86921

The dashed part of the orbit path shows where the satellite is in the earth's shadow,  

DLR